Blossom Valley (240) Station Data

Red Flag Warning: No
Fire Weather Zone: 250
SDGE Region: Eastern
Lat/Lon: 32.868/-116.843

Observations

Time Wind Speed/Gust Temp(F) RH Fuel Moist Fuel Temp(F) Dewpt(F) Tmax(F) Tmin(F) Accum Precip 10-min Precip SL Press(mb)
6/22 5:00am 194 1 G 2 60° 100% - - 60° 64.4° 59.4° - - -
6/22 4:50am 247 0 G 2 60° 100% - - 60° 64.4° 59.4° - - -
6/22 4:40am 278 1 G 1 60° 100% - - 60° 64.4° 59.5° - - -
6/22 4:30am 299 1 G 2 60° 100% - - 60° 64.4° 59.5° - - -
6/22 4:20am 319 1 G 3 60° 100% - - 60° 64.4° 59.5° - - -
6/22 4:10am 54 0 G 1 60° 100% - - 60° 64.4° 59.5° - - -
6/22 4:00am 39 0 G 2 60° 100% - - 60° 64.4° 59.5° - - -
6/22 3:50am 41 0 G 1 60° 100% - - 60° 64.4° 59.5° - - -
6/22 3:40am 57 1 G 2 60° 100% - - 60° 64.4° 59.5° - - -
6/22 3:30am 91 0 G 1 60° 100% - - 60° 64.4° 59.5° - - -
6/22 3:20am 54 0 G 2 60° 100% - - 60° 64.4° 59.5° - - -
6/22 3:10am 300 0 G 2 60° 100% - - 60° 64.4° 59.5° - - -
6/22 3:00am 269 1 G 2 60° 100% - - 60° 64.4° 59.5° - - -
6/22 2:50am 237 1 G 2 60° 100% - - 60° 64.4° 59.5° - - -
6/22 2:40am 226 0 G 1 60° 100% - - 60° 64.4° 59.5° - - -
6/22 2:30am 223 0 G 1 60° 100% - - 60° 64.4° 59.6° - - -
6/22 2:20am 0 0 G 0 60° 100% - - 60° 64.4° 59.8° - - -
6/22 2:10am 237 0 G 1 60° 100% - - 60° 64.4° 60° - - -
6/22 2:00am 244 0 G 1 61° 100% - - 61° 64.4° 60.3° - - -
6/22 1:50am 259 0 G 2 61° 100% - - 61° 64.4° 60.5° - - -
6/22 1:40am 62 0 G 1 61° 100% - - 61° 64.4° 60.7° - - -
6/22 1:30am 230 0 G 1 61° 100% - - 61° 64.4° 60.7° - - -
6/22 1:20am 253 1 G 2 61° 100% - - 61° 64.4° 61.1° - - -
6/22 1:10am 0 0 G 0 61° 100% - - 61° 64.4° 61.2° - - -
6/22 1:00am 229 0 G 2 62° 100% - - 62° 64.4° 61.4° - - -
6/22 12:50am 244 1 G 2 62° 100% - - 62° 64.4° 61.8° - - -
6/22 12:40am 242 1 G 2 63° 100% - - 63° 64.4° 62.4° - - -
6/22 12:30am 244 1 G 2 63° 100% - - 63° 64.4° 62.7° - - -
6/22 12:20am 252 1 G 2 64° 100% - - 64° 64.4° 63.3° - - -
6/22 12:10am 189 0 G 1 64° 100% - - 64° 64.4° 63.6° - - -
6/22 12:00am 246 1 G 2 65° 100% - - 65° 93.4° 63.1° - - -
6/21 11:50pm 254 1 G 1 65° 100% - - 65° 93.4° 63.1° - - -
6/21 11:40pm 259 0 G 1 66° 100% - - 66° 93.4° 63.1° - - -
6/21 11:30pm 40 0 G 1 66° 100% - - 66° 93.4° 63.1° - - -
6/21 11:20pm 41 0 G 1 66° 100% - - 66° 93.4° 63.1° - - -
6/21 11:10pm 61 0 G 1 66° 100% - - 66° 93.4° 63.1° - - -
6/21 11:00pm 250 1 G 1 66° 100% - - 66° 93.4° 63.1° - - -
6/21 10:50pm 253 0 G 1 67° 100% - - 67° 93.4° 63.1° - - -
6/21 10:40pm 243 0 G 1 67° 100% - - 67° 93.4° 63.1° - - -
6/21 10:30pm 226 0 G 1 67° 100% - - 67° 93.4° 63.1° - - -
6/21 10:20pm 0 0 G 0 68° 100% - - 68° 93.4° 63.1° - - -
6/21 10:10pm 234 1 G 2 68° 100% - - 68° 93.4° 63.1° - - -
6/21 10:00pm 243 1 G 2 69° 100% - - 69° 93.4° 63.1° - - -
6/21 9:50pm 237 1 G 3 70° 100% - - 70° 93.4° 63.1° - - -
6/21 9:40pm 248 1 G 2 70° 96% - - 69° 93.4° 63.1° - - -
6/21 9:30pm 258 1 G 2 71° 89% - - 67° 93.4° 63.1° - - -
6/21 9:20pm 237 0 G 2 72° 83% - - 66° 93.4° 63.1° - - -
6/21 9:10pm 242 1 G 3 72° 80% - - 66° 93.4° 63.1° - - -
6/21 9:00pm 256 2 G 4 73° 77% - - 65° 93.4° 63.1° - - -
6/21 8:50pm 256 2 G 3 73° 75% - - 65° 93.4° 63.1° - - -
6/21 8:40pm 245 2 G 3 74° 72% - - 65° 93.4° 63.1° - - -
6/21 8:30pm 255 3 G 4 75° 69% - - 64° 93.4° 63.1° - - -
6/21 8:20pm 265 2 G 3 75° 67% - - 64° 93.4° 63.1° - - -
6/21 8:10pm 248 2 G 3 76° 66% - - 64° 93.4° 63.1° - - -
6/21 8:00pm 249 2 G 4 77° 67% - - 65° 93.4° 63.1° - - -
6/21 7:50pm 261 3 G 5 78° 64% - - 64° 93.4° 63.1° - - -
6/21 7:40pm 248 3 G 5 79° 60% - - 64° 93.4° 63.1° - - -
6/21 7:30pm 247 4 G 5 79° 56% - - 62° 93.4° 63.1° - - -
6/21 7:20pm 241 3 G 6 80° 53% - - 61° 93.4° 63.1° - - -
6/21 7:10pm 258 4 G 7 81° 50% - - 61° 93.4° 63.1° - - -
6/21 7:00pm 263 5 G 8 81° 49% - - 60° 93.4° 63.1° - - -
6/21 6:50pm 247 5 G 9 82° 47% - - 60° 93.4° 63.1° - - -
6/21 6:40pm 247 5 G 8 83° 46% - - 59° 93.4° 63.1° - - -
6/21 6:30pm 258 6 G 9 83° 45% - - 59° 93.4° 63.1° - - -
6/21 6:20pm 256 6 G 9 83° 44% - - 59° 93.4° 63.1° - - -
6/21 6:10pm 252 6 G 9 83° 43% - - 59° 93.4° 63.1° - - -
6/21 6:00pm 257 6 G 10 84° 43% - - 59° 93.4° 63.1° - - -
6/21 5:50pm 261 7 G 10 84° 42% - - 58° 93.4° 63.1° - - -
6/21 5:40pm 261 7 G 12 85° 41% - - 58° 93.4° 63.1° - - -
6/21 5:30pm 255 7 G 12 86° 39% - - 58° 93.4° 63.1° - - -
6/21 5:20pm 253 6 G 10 86° 39% - - 58° 93.4° 63.1° - - -
6/21 5:10pm 255 8 G 12 86° 39% - - 58° 93.4° 63.1° - - -
6/21 5:00pm 252 7 G 13 87° 37% - - 57° 93.4° 63.1° - - -
6/21 4:50pm 258 7 G 11 87° 36% - - 57° 93.4° 63.1° - - -
6/21 4:40pm 261 7 G 10 87° 36% - - 57° 93.4° 63.1° - - -
6/21 4:30pm 255 7 G 10 87° 36% - - 57° 93.4° 63.1° - - -
6/21 4:20pm 257 8 G 13 87° 37% - - 57° 93.4° 63.1° - - -
6/21 4:10pm 255 8 G 14 87° 36% - - 57° 93.4° 63.1° - - -
6/21 4:00pm 258 8 G 12 88° 36% - - 57° 93.4° 63.1° - - -
6/21 3:50pm 252 8 G 13 88° 35% - - 57° 93.4° 63.1° - - -
6/21 3:40pm 249 8 G 12 88° 35% - - 57° 93.4° 63.1° - - -
6/21 3:30pm 261 9 G 13 88° 36% - - 57° 93.4° 63.1° - - -
6/21 3:20pm 257 9 G 13 88° 36% - - 58° 93.4° 63.1° - - -
6/21 3:10pm 259 9 G 13 89° 35% - - 58° 93.4° 63.1° - - -
6/21 3:00pm 257 9 G 13 89° 35% - - 58° 93.4° 63.1° - - -
6/21 2:50pm 251 8 G 13 90° 34% - - 58° 93.4° 63.1° - - -
6/21 2:40pm 251 8 G 13 90° 34% - - 58° 93.4° 63.1° - - -
6/21 2:30pm 249 8 G 13 91° 33% - - 58° 93.4° 63.1° - - -
6/21 2:20pm 251 9 G 16 90° 34% - - 58° 93.4° 63.1° - - -
6/21 2:10pm 246 10 G 15 90° 34% - - 58° 93.4° 63.1° - - -
6/21 2:00pm 245 9 G 14 91° 33% - - 57° 93.4° 63.1° - - -
6/21 1:50pm 248 9 G 16 91° 31% - - 57° 93.4° 63.1° - - -
6/21 1:40pm 247 8 G 13 92° 30% - - 56° 93.4° 63.1° - - -
6/21 1:30pm 246 8 G 14 92° 30% - - 56° 93.4° 63.1° - - -
6/21 1:20pm 244 7 G 14 93° 29% - - 56° 93.4° 63.1° - - -
6/21 1:10pm 249 7 G 14 92° 29% - - 55° 92.5° 63.1° - - -
6/21 1:00pm 243 7 G 12 92° 29% - - 55° 92.5° 63.1° - - -
6/21 12:50pm 246 7 G 12 92° 29% - - 55° 92.5° 63.1° - - -
6/21 12:40pm 243 7 G 12 91° 30% - - 55° 92.2° 63.1° - - -
6/21 12:30pm 243 7 G 12 91° 30% - - 55° 92.2° 63.1° - - -
6/21 12:20pm 236 5 G 11 92° 29% - - 55° 92.2° 63.1° - - -
6/21 12:10pm 253 7 G 12 90° 30% - - 55° 90.8° 63.1° - - -
6/21 12:00pm 256 7 G 11 90° 30% - - 54° 90.6° 63.1° - - -
6/21 11:50am 253 7 G 10 89° 31% - - 54° 90° 63.1° - - -
6/21 11:40am 252 7 G 11 89° 31% - - 54° 89.8° 63.1° - - -
6/21 11:30am 253 5 G 9 89° 32% - - 55° 89.8° 63.1° - - -
6/21 11:20am 238 5 G 9 87° 33% - - 55° 88.3° 63.1° - - -
6/21 11:10am 245 5 G 10 87° 34% - - 55° 87.7° 63.1° - - -
6/21 11:00am 246 5 G 9 86° 34% - - 54° 86.7° 63.1° - - -
6/21 10:50am 250 4 G 8 86° 34% - - 54° 86.7° 63.1° - - -
6/21 10:40am 242 5 G 7 85° 36% - - 54° 85.4° 63.1° - - -
6/21 10:30am 245 4 G 7 84° 36% - - 54° 84.7° 63.1° - - -
6/21 10:20am 239 4 G 6 84° 38% - - 56° 84° 63.1° - - -
6/21 10:10am 227 4 G 7 83° 39% - - 56° 83.9° 63.1° - - -
6/21 10:00am 225 3 G 5 82° 41% - - 57° 82.6° 63.1° - - -
6/21 9:50am 231 3 G 6 81° 45% - - 58° 81.9° 63.1° - - -
6/21 9:40am 235 4 G 6 81° 47% - - 59° 81.5° 63.1° - - -
6/21 9:30am 235 3 G 5 81° 46% - - 58° 81.5° 63.1° - - -
6/21 9:20am 236 2 G 4 80° 46% - - 57° 80.7° 63.1° - - -
6/21 9:10am 236 2 G 4 79° 45% - - 56° 79.5° 63.1° - - -
6/21 9:00am 246 2 G 4 79° 47% - - 57° 79.1° 63.1° - - -
6/21 8:50am 258 1 G 3 77° 53% - - 59° 78.4° 63.1° - - -
6/21 8:40am 252 1 G 3 76° 60% - - 61° 76.7° 63.1° - - -
6/21 8:30am 243 1 G 2 75° 68% - - 63° 75° 63.1° - - -
6/21 8:20am 236 1 G 2 73° 80% - - 66° 73.8° 63.1° - - -
6/21 8:10am 243 1 G 2 72° 87% - - 68° 72.2° 63.1° - - -
6/21 8:00am 233 1 G 2 71° 98% - - 70° 71.2° 63.1° - - -
6/21 7:50am 246 1 G 2 70° 100% - - 70° 71° 63.1° - - -
6/21 7:40am 237 1 G 2 69° 100% - - 69° 71° 63.1° - - -
6/21 7:30am 247 2 G 3 68° 100% - - 68° 71° 63.1° - - -
6/21 7:20am 97 1 G 3 67° 100% - - 67° 71° 63.1° - - -
6/21 7:10am 97 0 G 1 66° 100% - - 66° 71° 63.1° - - -
6/21 7:00am 91 0 G 1 65° 100% - - 65° 71° 63.1° - - -
6/21 6:50am 243 0 G 1 64° 100% - - 64° 71° 63.1° - - -
6/21 6:40am 267 1 G 1 64° 100% - - 64° 71° 63.1° - - -
6/21 6:30am 0 0 G 0 63° 100% - - 63° 71° 63.1° - - -
6/21 6:20am 258 1 G 2 64° 100% - - 64° 71° 63.4° - - -
6/21 6:10am 20 1 G 2 64° 100% - - 64° 71° 63.6° - - -
6/21 6:00am 321 1 G 2 64° 100% - - 64° 71° 63.6° - - -
6/21 5:50am 1 1 G 2 65° 100% - - 65° 71° 64.1° - - -
6/21 5:40am 298 1 G 2 65° 100% - - 65° 71° 64.4° - - -
6/21 5:30am 41 1 G 2 65° 100% - - 65° 71° 64.4° - - -
6/21 5:20am 266 0 G 1 65° 100% - - 65° 71° 64.4° - - -
6/21 5:10am 16 0 G 1 65° 100% - - 65° 71° 64.9° - - -
6/21 5:00am 285 1 G 2 66° 100% - - 66° 71° 65° - - -
6/21 4:50am 60 1 G 1 66° 100% - - 66° 71° 65° - - -
6/21 4:40am 72 1 G 2 66° 95% - - 64° 71° 65° - - -
6/21 4:30am 67 1 G 2 65° 96% - - 64° 71° 65° - - -
6/21 4:20am 69 0 G 1 65° 100% - - 65° 71° 65° - - -
6/21 4:10am 261 1 G 1 66° 100% - - 66° 71° 65.5° - - -
6/21 4:00am 329 1 G 3 67° 99% - - 67° 71° 65.5° - - -
6/21 3:50am 21 1 G 2 67° 100% - - 67° 71° 65.5° - - -
6/21 3:40am 42 1 G 2 66° 100% - - 66° 71° 65.5° - - -
6/21 3:30am 252 1 G 2 66° 95% - - 65° 71° 65.8° - - -
6/21 3:20am 49 2 G 3 66° 100% - - 66° 71° 65.9° - - -
6/21 3:10am 45 0 G 1 66° 100% - - 66° 71° 65.9° - - -
6/21 3:00am 273 0 G 1 66° 100% - - 67° 71° 66.3° - - -
6/21 2:50am 252 0 G 1 67° 100% - - 67° 71° 66.5° - - -
6/21 2:40am 247 0 G 1 67° 97% - - 67° 71° 67.1° - - -
6/21 2:30am 73 0 G 2 68° 89% - - 64° 71° 67.3° - - -
6/21 2:20am 47 1 G 3 68° 98% - - 67° 71° 67.3° - - -
6/21 2:10am 264 0 G 1 68° 97% - - 67° 71° 67.5° - - -
6/21 2:00am 58 0 G 1 68° 88% - - 65° 71° 68° - - -
6/21 1:50am 55 0 G 1 68° 89% - - 65° 71° 68.2° - - -
6/21 1:40am 67 0 G 2 69° 83% - - 63° 71° 68.4° - - -
6/21 1:30am 0 0 G 0 69° 82% - - 63° 71° 68.8° - - -
6/21 1:20am 254 0 G 1 70° 76% - - 62° 71° 69.2° - - -
6/21 1:10am 51 1 G 2 70° 74% - - 61° 71° 69.3° - - -
6/21 1:00am 71 1 G 2 70° 74% - - 61° 71° 69.3° - - -
6/21 12:50am 92 0 G 2 70° 72% - - 61° 71° 69.3° - - -
6/21 12:40am 21 2 G 3 70° 74% - - 62° 71° 69.3° - - -
6/21 12:30am 43 1 G 3 70° 77% - - 62° 70.3° 69.3° - - -
6/21 12:20am 63 0 G 1 70° 80% - - 63° 69.9° 69.4° - - -
6/21 12:10am 33 0 G 2 70° 82% - - 64° 69.9° 69.4° - - -
6/21 12:00am 62 1 G 2 70° 80% - - 64° 98° 67.6° - - -
6/20 11:50pm 34 2 G 2 70° 85% - - 66° 98° 67.6° - - -
6/20 11:40pm 35 1 G 3 70° 80% - - 64° 98° 67.6° - - -
6/20 11:30pm 263 0 G 1 71° 73% - - 62° 98° 67.6° - - -
6/20 11:20pm 258 1 G 2 72° 67% - - 60° 98° 67.6° - - -
6/20 11:10pm 271 1 G 2 73° 63% - - 59° 98° 67.6° - - -
6/20 11:00pm 26 1 G 2 73° 59% - - 58° 98° 67.6° - - -
6/20 10:50pm 50 1 G 2 73° 57% - - 57° 98° 67.6° - - -
6/20 10:40pm 264 1 G 2 75° 55% - - 57° 98° 67.6° - - -
6/20 10:30pm 33 1 G 2 75° 52% - - 57° 98° 67.6° - - -
6/20 10:20pm 59 1 G 2 76° 51% - - 56° 98° 67.6° - - -
6/20 10:10pm 38 1 G 2 76° 48% - - 55° 98° 67.6° - - -
6/20 10:00pm 51 1 G 2 77° 45% - - 54° 98° 67.6° - - -
6/20 9:50pm 74 1 G 2 78° 43% - - 54° 98° 67.6° - - -
6/20 9:40pm 71 1 G 2 79° 40% - - 53° 98° 67.6° - - -
6/20 9:30pm 35 1 G 2 80° 38% - - 53° 98° 67.6° - - -
6/20 9:20pm 49 1 G 2 81° 38% - - 53° 98° 67.6° - - -
6/20 9:10pm 283 0 G 1 81° 36% - - 52° 98° 67.6° - - -
6/20 9:00pm 37 2 G 2 82° 35% - - 52° 98° 67.6° - - -
6/20 8:50pm 61 0 G 2 82° 35% - - 52° 98° 67.6° - - -
6/20 8:40pm 284 0 G 2 83° 34% - - 51° 98° 67.6° - - -
6/20 8:30pm 285 0 G 1 83° 34% - - 52° 98° 67.6° - - -
6/20 8:20pm 28 0 G 2 83° 33% - - 52° 98° 67.6° - - -
6/20 8:10pm 94 0 G 0 84° 33% - - 52° 98° 67.6° - - -
6/20 8:00pm 0 0 G 0 85° 32% - - 52° 98° 67.6° - - -
6/20 7:50pm 232 0 G 2 86° 30% - - 51° 98° 67.6° - - -
6/20 7:40pm 254 2 G 3 87° 30% - - 51° 98° 67.6° - - -
6/20 7:30pm 258 3 G 5 87° 29% - - 51° 98° 67.6° - - -
6/20 7:20pm 256 4 G 6 87° 29% - - 51° 98° 67.6° - - -
6/20 7:10pm 248 4 G 6 88° 29% - - 51° 98° 67.6° - - -
6/20 7:00pm 261 4 G 7 88° 28% - - 51° 98° 67.6° - - -
6/20 6:50pm 256 4 G 7 89° 28% - - 52° 98° 67.6° - - -
6/20 6:40pm 255 4 G 6 89° 28% - - 52° 98° 67.6° - - -
6/20 6:30pm 255 5 G 8 89° 28% - - 52° 98° 67.6° - - -
6/20 6:20pm 262 6 G 8 89° 28% - - 52° 98° 67.6° - - -
6/20 6:10pm 259 6 G 9 90° 27% - - 52° 98° 67.6° - - -
6/20 6:00pm 259 6 G 9 90° 27% - - 52° 98° 67.6° - - -